Location: St. Louis
(38.6270°N, 90.1994°W)
Time: 01:47:18
(UTC-06:00)

Vanguard 2 - Pass Details

Date: 02 December 2021
Orbit: 553 x 2936 km, 32.9° (Epoch: 16 January)

Event Time Altitude Azimuth Distance (km) Brightness Sun altitude
Rises 15:35:24 0° 261° (W) 3,282 11.9 9.7°
Reaches altitude 10° 15:37:29 10° 256° (WSW) 2,542 11.6 9.3°
Maximum altitude 15:43:26 57° 179° (S) 1,395 9.3 8.4°
Drops below altitude 10° 15:53:24 10° 104° (ESE) 4,161 10.9 6.8°
Sets 15:57:44 0° 102° (ESE) 5,553 11.5 6.2°
